timestamp,surface_pressure_avg,surface_temp_avg,battery_voltage,lat,long
2021-02-26 00:09:01+00:00,330.6547,1.45,12.57,47.84626,-54.09684
2021-02-26 00:19:01+00:00,332.6763,1.48,12.57,47.84626,-54.09684
2021-02-26 00:29:01+00:00,322.5363,1.49,12.57,47.84626,-54.09684
2021-02-26 00:39:01+00:00,315.933,1.48,12.57,47.84626,-54.09684
2021-02-26 00:49:01+00:00,313.6213,1.48,12.57,47.84626,-54.09684
2021-02-26 00:59:01+00:00,305.2097,1.49,12.57,47.84626,-54.09684
2021-02-26 01:09:01+00:00,293.9647,1.5,12.57,47.84626,-54.09684
2021-02-26 01:19:01+00:00,286.903,1.5,12.49,47.84626,-54.09684
2021-02-26 01:29:01+00:00,279.558,1.5,12.49,47.84626,-54.09684
2021-02-26 01:39:01+00:00,273.4514,1.5,12.49,47.84626,-54.09684
2021-02-26 01:49:01+00:00,266.5881,1.5,12.49,47.84626,-54.09684
2021-02-26 01:59:01+00:00,261.2864,1.5,12.49,47.84626,-54.09684
2021-02-26 02:09:01+00:00,253.9964,1.5,12.49,47.84626,-54.09684
2021-02-26 02:19:01+00:00,247.618,1.5,12.49,47.84626,-54.09684
2021-02-26 02:29:01+00:00,239.5314,1.5,12.49,47.84626,-54.09684
2021-02-26 02:39:01+00:00,231.8164,1.5,12.49,47.84626,-54.09684
2021-02-26 02:49:01+00:00,226.9081,1.48,12.49,47.84626,-54.09684
2021-02-26 02:59:01+00:00,221.3582,1.47,12.49,47.84626,-54.09684
2021-02-26 03:09:01+00:00,212.9998,1.46,12.49,47.84626,-54.09684
2021-02-26 03:19:01+00:00,206.4131,1.43,12.49,47.84626,-54.09684
2021-02-26 03:29:01+00:00,204.0231,1.41,12.49,47.84626,-54.09684
2021-02-26 03:39:01+00:00,203.1248,1.4,12.49,47.84626,-54.09684
2021-02-26 03:49:01+00:00,200.5731,1.4,12.49,47.84626,-54.09684
2021-02-26 03:59:01+00:00,194.8514,1.4,12.49,47.84626,-54.09684
2021-02-26 04:09:01+00:00,189.4381,1.4,12.49,47.84626,-54.09684
2021-02-26 04:19:01+00:00,189.1648,1.4,12.49,47.84626,-54.09684
2021-02-26 04:29:01+00:00,187.8164,1.4,12.49,47.84626,-54.09684
2021-02-26 04:39:01+00:00,186.7915,1.39,12.49,47.84626,-54.09684
2021-02-26 04:49:01+00:00,189.3698,1.39,12.49,47.84626,-54.09684
2021-02-26 04:59:01+00:00,189.4115,1.4,12.49,47.84626,-54.09684
2021-02-26 05:09:01+00:00,184.0448,1.39,12.49,47.84626,-54.09684
2021-02-26 05:19:01+00:00,182.0331,1.38,12.49,47.84626,-54.09684
2021-02-26 05:29:01+00:00,186.9081,1.39,12.49,47.84626,-54.09684
2021-02-26 05:39:01+00:00,186.4981,1.38,12.49,47.84626,-54.09684
2021-02-26 05:49:01+00:00,181.2615,1.37,12.49,47.84626,-54.09684
2021-02-26 05:59:01+00:00,181.5215,1.37,12.49,47.84626,-54.09684
2021-02-26 06:09:01+00:00,187.6948,1.38,12.49,47.84626,-54.09684
2021-02-26 06:19:01+00:00,192.9247,1.39,12.49,47.84626,-54.09684
2021-02-26 06:29:01+00:00,197.7248,1.38,12.49,47.84626,-54.09684
2021-02-26 06:39:01+00:00,202.0414,1.38,12.49,47.84626,-54.09684
2021-02-26 06:49:01+00:00,205.4764,1.36,12.49,47.84626,-54.09684
2021-02-26 06:59:01+00:00,210.1281,1.32,12.49,47.84626,-54.09684
2021-02-26 07:09:01+00:00,220.4214,1.34,12.49,47.84626,-54.09684
2021-02-26 07:19:01+00:00,228.1447,1.35,12.41,47.84626,-54.09684
2021-02-26 07:29:01+00:00,227.8547,1.3,12.41,47.84626,-54.09684
2021-02-26 07:39:01+00:00,229.1547,1.3,12.41,47.84626,-54.09684
2021-02-26 07:49:01+00:00,238.4281,1.3,12.41,47.84626,-54.09684
2021-02-26 07:59:01+00:00,247.6581,1.3,12.41,47.84626,-54.09684
2021-02-26 08:09:01+00:00,251.9865,1.3,12.41,47.84626,-54.09684
2021-02-26 08:19:01+00:00,259.1514,1.3,12.41,47.84626,-54.09684
2021-02-26 08:29:01+00:00,269.2081,1.26,12.41,47.84626,-54.09684
2021-02-26 08:39:01+00:00,275.9214,1.2,12.41,47.84626,-54.09684
2021-02-26 08:49:01+00:00,281.2481,1.2,12.41,47.84626,-54.09684
2021-02-26 08:59:01+00:00,290.7681,1.2,12.41,47.84626,-54.09684
2021-02-26 09:09:01+00:00,295.793,1.2,12.41,47.84626,-54.09684
2021-02-26 09:19:01+00:00,298.4996,1.24,12.49,47.84626,-54.09684
2021-02-26 09:29:01+00:00,308.093,1.29,12.49,47.84626,-54.09684
2021-02-26 09:39:01+00:00,318.2013,1.3,12.49,47.84626,-54.09684
2021-02-26 09:49:01+00:00,320.5347,1.3,12.49,47.84626,-54.09684
2021-02-26 09:59:01+00:00,321.6697,1.3,12.49,47.84626,-54.09684
2021-02-26 10:09:01+00:00,329.423,1.3,12.49,47.84626,-54.09684
2021-02-26 10:19:01+00:00,334.8563,1.3,12.49,47.84626,-54.09684
2021-02-26 10:29:01+00:00,334.9113,1.3,12.49,47.84626,-54.09684
2021-02-26 10:39:01+00:00,338.2964,1.3,12.49,47.84626,-54.09684
2021-02-26 10:49:01+00:00,343.8696,1.3,12.49,47.84626,-54.09684
2021-02-26 10:59:01+00:00,343.6429,1.37,12.49,47.84626,-54.09684
2021-02-26 11:09:01+00:00,346.7479,1.38,12.49,47.84626,-54.09684
2021-02-26 11:19:01+00:00,357.593,1.38,12.89,47.84626,-54.09684
2021-02-26 11:29:01+00:00,359.6479,1.39,12.89,47.84626,-54.09684
2021-02-26 11:39:01+00:00,354.93800000000016,1.37,12.89,47.84626,-54.09684
2021-02-26 11:49:01+00:00,357.5913,1.35,12.89,47.84626,-54.09684
2021-02-26 11:59:01+00:00,356.9946,1.36,12.89,47.84626,-54.09684
2021-02-26 12:09:01+00:00,352.1414,1.36,12.89,47.84626,-54.09684
2021-02-26 12:19:01+00:00,349.3363,1.32,14.64,47.84626,-54.09684
2021-02-26 12:29:01+00:00,348.4863,1.31,14.64,47.84626,-54.09684
2021-02-26 12:39:01+00:00,343.86300000000006,1.31,14.64,47.84626,-54.09684
2021-02-26 12:49:01+00:00,344.2613,1.31,14.64,47.84626,-54.09684
2021-02-26 12:59:01+00:00,348.5345,1.32,14.64,47.84626,-54.09684
2021-02-26 13:09:01+00:00,342.2147,1.35,14.64,47.84626,-54.09684
2021-02-26 13:19:01+00:00,337.0030000000001,1.33,14.8,47.84626,-54.09684
2021-02-26 13:29:01+00:00,335.088,1.33,14.8,47.84626,-54.09684
2021-02-26 13:39:01+00:00,328.2913,1.37,14.8,47.84626,-54.09684
2021-02-26 13:49:01+00:00,318.6447,1.36,14.8,47.84626,-54.09684
2021-02-26 13:59:01+00:00,310.3497,1.37,14.8,47.84626,-54.09684
2021-02-26 14:09:01+00:00,305.2714,1.4,14.8,47.84626,-54.09684
2021-02-26 14:19:01+00:00,292.0181,1.4,14.48,47.84626,-54.09684
2021-02-26 14:29:01+00:00,281.4697,1.43,14.48,47.84626,-54.09684
2021-02-26 14:39:01+00:00,277.7731,1.46,14.48,47.84626,-54.09684
2021-02-26 14:49:01+00:00,271.5731,1.47,14.48,47.84626,-54.09684
2021-02-26 14:59:01+00:00,260.1197,1.48,14.48,47.84626,-54.09684
2021-02-26 15:09:01+00:00,255.8814,1.48,14.48,47.84626,-54.09684
2021-02-26 15:19:01+00:00,251.8131,1.49,14.48,47.84626,-54.09684
2021-02-26 15:29:01+00:00,240.4131,1.5,14.48,47.84626,-54.09684
2021-02-26 15:39:01+00:00,231.9915,1.5,14.48,47.84626,-54.09684
2021-02-26 15:49:01+00:00,230.3281,1.5,14.48,47.84626,-54.09684
2021-02-26 15:59:01+00:00,220.4381,1.5,14.48,47.84626,-54.09684
2021-02-26 16:09:01+00:00,205.8181,1.49,14.48,47.84626,-54.09684
2021-02-26 16:19:01+00:00,203.9815,1.49,14.4,47.84626,-54.09684
2021-02-26 16:29:01+00:00,209.6881,1.5,14.4,47.84626,-54.09684
2021-02-26 16:39:01+00:00,205.8597,1.5,14.4,47.84626,-54.09684
2021-02-26 16:49:01+00:00,200.0964,1.5,14.4,47.84626,-54.09684
2021-02-26 16:59:01+00:00,201.9014,1.5,14.4,47.84626,-54.09684
2021-02-26 17:09:01+00:00,202.3581,1.5,14.4,47.84626,-54.09684
2021-02-26 17:19:01+00:00,198.5281,1.5,14.64,47.84626,-54.09684
2021-02-26 17:29:01+00:00,200.7865,1.5,14.64,47.84626,-54.09684
2021-02-26 17:39:01+00:00,204.9865,1.5,14.64,47.84626,-54.09684
2021-02-26 17:49:01+00:00,199.5398,1.5,14.64,47.84626,-54.09684
2021-02-26 17:59:01+00:00,194.0764,1.5,14.64,47.84626,-54.09684
2021-02-26 18:09:01+00:00,200.1982,1.5,14.64,47.84626,-54.09684
2021-02-26 18:19:01+00:00,205.6931,1.5,14.48,47.84626,-54.09684
2021-02-26 18:29:01+00:00,205.4331,1.5,14.48,47.84626,-54.09684
2021-02-26 18:39:01+00:00,209.2564,1.5,14.48,47.84626,-54.09684
2021-02-26 18:49:01+00:00,218.1397,1.5,14.48,47.84626,-54.09684
2021-02-26 18:59:01+00:00,222.8731,1.5,14.48,47.84626,-54.09684
2021-02-26 19:09:01+00:00,223.7797,1.5,14.48,47.84626,-54.09684
2021-02-26 19:19:01+00:00,230.338,1.5,14.24,47.84626,-54.09684
2021-02-26 19:29:01+00:00,240.3015,1.5,14.24,47.84626,-54.09684
2021-02-26 19:39:01+00:00,242.8881,1.5,14.24,47.84626,-54.09684
2021-02-26 19:49:01+00:00,244.4981,1.5,14.24,47.84626,-54.09684
2021-02-26 19:59:01+00:00,252.2598,1.5,14.24,47.84626,-54.09684
2021-02-26 20:09:01+00:00,261.1231,1.5,14.24,47.84626,-54.09684
2021-02-26 20:19:01+00:00,264.9064,1.5,14.0,47.84626,-54.09684
2021-02-26 20:29:01+00:00,268.1797,1.5,14.0,47.84626,-54.09684
2021-02-26 20:39:01+00:00,275.5147,1.5,14.0,47.84626,-54.09684
2021-02-26 20:49:01+00:00,283.8447,1.44,14.0,47.84626,-54.09684
2021-02-26 20:59:01+00:00,290.2147,1.45,14.0,47.84626,-54.09684
2021-02-26 21:09:01+00:00,295.613,1.42,14.0,47.84626,-54.09684
2021-02-26 21:19:01+00:00,299.58799999999997,1.4,13.6,47.84626,-54.09684
2021-02-26 21:29:01+00:00,309.9512,1.4,13.6,47.84626,-54.09684
2021-02-26 21:39:01+00:00,319.7847,1.4,13.6,47.84626,-54.09684
2021-02-26 21:49:01+00:00,325.5113,1.4,13.6,47.84626,-54.09684
2021-02-26 21:59:01+00:00,330.2996,1.4,13.6,47.84626,-54.09684
2021-02-26 22:09:01+00:00,337.9246,1.4,13.6,47.84626,-54.09684
2021-02-26 22:19:01+00:00,343.0797,1.4,13.21,47.84626,-54.09684
2021-02-26 22:29:01+00:00,344.13800000000015,1.4,13.21,47.84626,-54.09684
2021-02-26 22:39:01+00:00,347.9597,1.4,13.21,47.84626,-54.09684
2021-02-26 22:49:01+00:00,354.7879,1.4,13.21,47.84626,-54.09684
2021-02-26 22:59:01+00:00,356.1563,1.4,13.21,47.84626,-54.09684
2021-02-26 23:09:01+00:00,356.9396,1.4,13.21,47.84626,-54.09684
2021-02-26 23:19:01+00:00,359.4846,1.4,12.81,47.84626,-54.09684
2021-02-26 23:29:01+00:00,358.94800000000015,1.4,12.81,47.84626,-54.09684
2021-02-26 23:39:01+00:00,357.658,1.4,12.81,47.84626,-54.09684
2021-02-26 23:49:01+00:00,357.2179,1.4,12.81,47.84626,-54.09684
2021-02-26 23:59:01+00:00,354.9397,1.4,12.81,47.84626,-54.09684
